Вернуться в каталог

SL-16 DEB

АктивенLEO
NORAD 43374·DEBRIS·🇷🇺 Russia

Запущен Jun 29, 2007 с Baikonur Cosmodrome

Loading…

Ближайшие Пролёты (ближайшие 24 часа)

TLE

СвежийSource: Space-Track

Эпоха: Sep 13, 2026, 03:53 UTC

1 43374U 07029R   26256.16203240  .00002250  00000-0  15790-2 0  9991
2 43374  71.0656  77.8796 0185727 132.7024 228.9898 13.91325354644210

Отслеживайте SL-16 DEB в реальном времени с AllMySat

Download on the App Store